Location: Wald
(31.7579°N, 86.6655°W)
Time: 21:11:32
(UTC+00:00)

NOSS 3-3 (C) - Pass Details

Date: 14 July 2020
Orbit: 823 x 1389 km, 63.4° (Epoch: 11 August)

Event Time Altitude Azimuth Distance (km) Brightness Sun altitude
Rises 01:16:46 0° 217° (SW) 3,350 6.9 -5.2°
Reaches altitude 10° 01:19:09 10° 220° (SW) 2,440 6.2 -5.6°
Maximum altitude 01:24:41 65° 302° (WNW) 965 4.4 -6.6°
Drops below altitude 10° 01:30:50 10° 24° (NNE) 2,692 6.4 -7.7°
Sets 01:33:35 0° 27° (NNE) 3,724 7.1 -8.2°
